Regional Weather Roundup
Issued by NWS

Current Version | Previous Version | Text Only | Print | Product List | Glossary Off
Versions: 1 2 3 4 5 6 7 8 9 10 11 12 13 14 15 16 17 18 19 20 21 22 23 24 25 26 27 28 29 30 31 32 33 34 35 36 37 38 39 40 41 42 43 44 45 46 47 48 49 50

000
ASUS42 KFFC 290403
RWRGA
WEATHER ROUNDUP FOR GEORGIA
NATIONAL WEATHER SERVICE PEACHTREE CITY GA
1200 AM EDT THU SEP 29 2016

NOTE: "FAIR" INDICATES FEW OR NO CLOUDS BELOW 12,000 FEET WITH NO
SIGNIFICANT WEATHER AND/OR OBSTRUCTIONS TO VISIBILITY.

* = USE WITH CAUTION. THE STATIONS MARKED WITH AN ASTERISK MAY NOT
REPORT WEATHER SUCH AS PRECIPITATION, FOG, OR THUNDER AND ARE NOT
QUALITY CONTROLLED BY NWS.

THE REMARK "TC" DENOTES TEMPERATURE READING IN DEGREES CELSIUS.

GAZ001>058-290500-
NORTH GEORGIA

CITY           SKY/WX    TMP DP  RH WIND       PRES   REMARKS
ATLANTA        CLEAR     71  46  40 SW6       29.95R
ATHENS         CLEAR     68  60  75 W3        29.93R
CHAMBLEE       CLEAR     62  53  72 CALM      29.94S
PEACHTREE CITY CLEAR     63  59  87 CALM      29.96S
ROME           CLEAR     60  50  69 CALM      29.93S
WEST ATLANTA   CLEAR     62  57  83 CALM      29.94S
GAINESVILLE      N/A    N/A N/A N/A MISG      29.96S
CARTERSVILLE   CLEAR     60  51  72 CALM      29.95S


CITY           SKY/WX    TMP DP  RH WIND       PRES   REMARKS
DALTON*        CLEAR     57  54  88 CALM      29.93S
MARIETTA       CLEAR     66  51  59 W10       29.94S
CANTON*        CLEAR     59  48  67 CALM      29.96F
BLAIRSVILLE*     N/A    N/A N/A N/A MISG      29.98F
$$

GAZ059>098-102>109-290500-
CENTRAL GEORGIA

CITY           SKY/WX    TMP DP  RH WIND       PRES   REMARKS
AUGUSTA-BUSH   CLOUDY    77  69  76 S6        29.91R
AUGUSTA-DANIEL CLEAR     79  67  66 SW3       29.92S
COLUMBUS       CLEAR     75  56  51 NW3       29.95S
MACON          PTCLDY    73  64  73 W5        29.94R
ROBINS AFB     PTCLDY    80  66  61 SW6       29.93S


CITY           SKY/WX    TMP DP  RH WIND       PRES   REMARKS
LAGRANGE*      CLEAR     68  61  77 CALM      29.96S
MILLEDGEVILLE* CLEAR     73  64  73 CALM      29.92F
$$

GAZ099>101-110>166-290500-
SOUTH GEORGIA

CITY           SKY/WX    TMP DP  RH WIND       PRES   REMARKS
SAVANNAH       MOCLDY    78  72  81 SW8       29.96S
VALDOSTA       CLEAR     74  74 100 CALM      29.98S
ALMA           CLEAR     75  72  90 S6        29.97R
ST SIMONS      PTCLDY    78  73  84 SW8       29.98R
FT STEWART     CLEAR     75  71  86 CALM      29.94S
ALBANY         CLEAR     76  72  87 S6        29.98R
HUNTER AFB     CLEAR     78  76  95 S6        29.93F
MOODY AFB      CLEAR     76  71  85 SW6       29.97R
BRUNSWICK      PTCLDY    77  73  88 SW7       29.98S


CITY           SKY/WX    TMP DP  RH WIND       PRES   REMARKS
BAINBRIDGE*    CLEAR     77  73  88 CALM      29.97S
MOULTRIE*      CLEAR     73  70  88 SW3       29.98S
VIDALIA*       PTCLDY    77  73  88 SW6       29.95S
WAYCROSS*      CLEAR     78  76  95 SW5       29.98S
DOUGLAS*       CLEAR     75  72  88 SW7       29.98F
$$



USA.gov is the U.S. government's official web portal to all federal, state and local government web resources and services.